�������l�o���
Date,Time,MP-1(��Sv/h),MP-2(��Sv/h),MP-3(��Sv/h),MP-4(��Sv/h),MP-5(��Sv/h),MP-6(��Sv/h),MP-7(��Sv/h),MP-8(��Sv/h),����,����(m/s),���J
2018/07/04,00:00,0.915,1.302,0.915,1.637,1.161,0.488,0.852,0.805,��쐼,3.1,��
2018/07/04,00:10,0.915,1.302,0.914,1.640,1.161,0.487,0.852,0.804,��쐼,2.0,��
2018/07/04,00:20,0.914,1.304,0.915,1.639,1.161,0.487,0.852,0.806,��쐼,2.3,��
2018/07/04,00:30,0.913,1.304,0.911,1.638,1.162,0.486,0.851,0.807,��쐼,1.2,��
2018/07/04,00:40,0.915,1.304,0.913,1.639,1.161,0.488,0.851,0.805,���쐼,0.8,��
2018/07/04,00:50,0.912,1.301,0.913,1.640,1.160,0.489,0.853,0.806,-,CALM,��
2018/07/04,01:00,0.913,1.301,0.912,1.637,1.162,0.487,0.852,0.807,��쐼,0.6,��
2018/07/04,01:10,0.914,1.302,0.913,1.637,1.163,0.488,0.850,0.805,�k��,1.4,��
2018/07/04,01:20,0.912,1.298,0.913,1.637,1.161,0.488,0.853,0.807,�k�k��,2.3,��
2018/07/04,01:30,0.911,1.300,0.911,1.639,1.161,0.486,0.851,0.805,�k,4.7,��
2018/07/04,01:40,0.912,1.301,0.911,1.635,1.161,0.486,0.852,0.807,�k�k��,3.7,��
2018/07/04,01:50,0.910,1.302,0.914,1.638,1.156,0.485,0.850,0.805,�k��,4.7,��
2018/07/04,02:00,0.910,1.300,0.912,1.636,1.158,0.484,0.850,0.805,�k�k��,5.4,��
2018/07/04,02:10,0.911,1.298,0.911,1.635,1.159,0.484,0.850,0.807,�k�k��,6.7,��
2018/07/04,02:20,0.911,1.298,0.911,1.634,1.158,0.485,0.849,0.805,�k�k��,6.1,��
2018/07/04,02:30,0.911,1.298,0.911,1.637,1.158,0.485,0.849,0.804,�k�k��,6.0,��
2018/07/04,02:40,0.911,1.295,0.911,1.637,1.159,0.484,0.850,0.804,�k�k��,5.2,��
2018/07/04,02:50,0.911,1.298,0.913,1.635,1.158,0.484,0.851,0.805,�k�k��,4.6,��
2018/07/04,03:00,0.909,1.300,0.914,1.635,1.159,0.484,0.849,0.804,�k�k��,3.5,��
2018/07/04,03:10,0.910,1.299,0.912,1.637,1.157,0.484,0.851,0.804,�k�k��,2.9,��
2018/07/04,03:20,0.911,1.299,0.910,1.635,1.157,0.484,0.848,0.804,�k�k��,2.2,��
2018/07/04,03:30,0.909,1.299,0.911,1.636,1.158,0.485,0.850,0.804,�k�k��,1.2,��
2018/07/04,03:40,0.910,1.301,0.911,1.635,1.155,0.483,0.851,0.805,-,CALM,��
2018/07/04,03:50,0.910,1.297,0.910,1.634,1.158,0.486,0.849,0.804,��,0.6,��
2018/07/04,04:00,0.910,1.298,0.910,1.633,1.157,0.484,0.850,0.805,��쓌,1.4,��
2018/07/04,04:10,0.911,1.300,0.909,1.634,1.155,0.485,0.850,0.804,��쓌,1.5,��
2018/07/04,04:20,0.909,1.297,0.912,1.635,1.160,0.484,0.850,0.805,�쓌,0.9,��
2018/07/04,04:30,0.908,1.299,0.910,1.635,1.156,0.486,0.850,0.805,�쓌,0.9,��
2018/07/04,04:40,0.910,1.299,0.911,1.633,1.156,0.484,0.850,0.806,-,CALM,��
2018/07/04,04:50,0.910,1.300,0.911,1.635,1.158,0.485,0.849,0.806,-,CALM,��
2018/07/04,05:00,0.910,1.299,0.912,1.634,1.157,0.484,0.849,0.806,-,CALM,��
2018/07/04,05:10,0.908,1.299,0.912,1.634,1.158,0.486,0.850,0.805,���쓌,0.9,��
2018/07/04,05:20,0.909,1.298,0.910,1.632,1.154,0.485,0.850,0.805,���쓌,0.9,��
2018/07/04,05:30,0.910,1.297,0.909,1.634,1.157,0.484,0.849,0.804,���쓌,1.5,��
2018/07/04,05:40,0.910,1.298,0.911,1.635,1.157,0.483,0.849,0.804,�쓌,1.4,��
2018/07/04,05:50,0.908,1.300,0.912,1.632,1.157,0.484,0.849,0.805,���쓌,1.4,��
2018/07/04,06:00,0.908,1.301,0.909,1.635,1.156,0.483,0.849,0.803,���쓌,1.4,��
2018/07/04,06:10,0.906,1.299,0.911,1.634,1.157,0.483,0.849,0.805,���쓌,1.1,��
2018/07/04,06:20,0.908,1.298,0.909,1.635,1.156,0.484,0.850,0.807,���쓌,0.9,��
2018/07/04,06:30,0.907,1.298,0.912,1.633,1.157,0.484,0.848,0.805,��,0.8,��
2018/07/04,06:40,0.908,1.296,0.909,1.634,1.156,0.484,0.850,0.804,���쓌,0.6,��
2018/07/04,06:50,0.910,1.297,0.909,1.636,1.160,0.483,0.849,0.804,���쓌,0.6,��
2018/07/04,07:00,0.907,1.295,0.909,1.634,1.154,0.483,0.849,0.805,��쓌,0.8,�L
2018/07/04,07:10,0.909,1.296,0.908,1.632,1.155,0.484,0.849,0.804,���k��,1.2,��
2018/07/04,07:20,0.906,1.295,0.909,1.633,1.155,0.483,0.850,0.803,�k,0.8,�L
2018/07/04,07:30,0.908,1.298,0.907,1.632,1.156,0.482,0.848,0.805,�k,0.6,�L
2018/07/04,07:40,0.908,1.297,0.910,1.634,1.155,0.483,0.850,0.804,�k�k��,2.0,�L
2018/07/04,07:50,0.904,1.295,0.909,1.632,1.156,0.482,0.850,0.803,���k��,0.9,�L
2018/07/04,08:00,0.906,1.291,0.910,1.633,1.157,0.483,0.848,0.805,��쓌,1.2,�L
2018/07/04,08:10,0.905,1.293,0.908,1.635,1.155,0.483,0.848,0.803,��쐼,0.9,�L
2018/07/04,08:20,0.904,1.291,0.908,1.636,1.154,0.483,0.848,0.803,�쐼,1.2,�L
2018/07/04,08:30,0.905,1.294,0.909,1.631,1.156,0.484,0.850,0.803,��,1.9,�L
2018/07/04,08:40,0.907,1.294,0.909,1.633,1.154,0.485,0.847,0.802,���쐼,0.9,��
2018/07/04,08:50,0.909,1.292,0.908,1.634,1.155,0.483,0.850,0.803,-,CALM,�L
2018/07/04,09:00,0.909,1.296,0.909,1.634,1.157,0.484,0.848,0.802,��쓌,1.2,��
2018/07/04,09:10,0.908,1.292,0.906,1.636,1.158,0.483,0.848,0.803,�쓌,2.0,�L
2018/07/04,09:20,0.907,1.289,0.908,1.635,1.157,0.484,0.848,0.803,��쓌,2.3,�L
2018/07/04,09:30,0.908,1.292,0.907,1.633,1.156,0.482,0.846,0.802,��쓌,3.5,��
2018/07/04,09:40,0.907,1.294,0.909,1.635,1.155,0.484,0.849,0.802,��,2.3,�L
2018/07/04,09:50,0.908,1.293,0.907,1.635,1.155,0.483,0.847,0.802,��쓌,2.9,�L
2018/07/04,10:00,0.907,1.293,0.912,1.636,1.157,0.485,0.848,0.800,��쓌,3.0,�L
2018/07/04,10:10,0.906,1.293,0.909,1.636,1.157,0.485,0.848,0.803,��,3.7,�L
2018/07/04,10:20,0.908,1.294,0.909,1.635,1.156,0.486,0.848,0.802,��,3.5,�L
2018/07/04,10:30,0.908,1.296,0.907,1.633,1.158,0.486,0.849,0.803,��,3.3,�L
2018/07/04,10:40,0.906,1.294,0.909,1.636,1.158,0.487,0.848,0.802,��,3.7,�L
2018/07/04,10:50,0.907,1.295,0.911,1.635,1.156,0.485,0.851,0.803,��,3.2,�L
2018/07/04,11:00,0.908,1.296,0.911,1.635,1.160,0.483,0.849,0.804,��,4.7,�L
2018/07/04,11:10,0.909,1.294,0.911,1.636,1.158,0.484,0.849,0.803,��,6.9,�L
2018/07/04,11:20,0.910,1.298,0.914,1.636,1.157,0.485,0.849,0.803,��,6.0,�L
2018/07/04,11:30,0.908,1.297,0.910,1.636,1.158,0.488,0.848,0.802,��,5.8,�L
2018/07/04,11:40,0.908,1.297,0.910,1.636,1.158,0.486,0.851,0.803,��,5.8,�L
2018/07/04,11:50,0.905,1.297,0.910,1.633,1.157,0.487,0.852,0.803,��,7.6,�L
2018/07/04,12:00,0.909,1.294,0.909,1.635,1.157,0.487,0.851,0.805,��,6.9,�L
2018/07/04,12:10,0.908,1.299,0.913,1.633,1.157,0.488,0.851,0.804,��,7.7,�L
2018/07/04,12:20,0.909,1.296,0.913,1.632,1.158,0.487,0.849,0.806,��,8.9,�L
2018/07/04,12:30,0.911,1.292,0.908,1.633,1.158,0.488,0.850,0.804,��,7.9,�L
2018/07/04,12:40,0.911,1.296,0.911,1.634,1.158,0.488,0.853,0.803,��,7.3,�L
2018/07/04,12:50,0.912,1.295,0.909,1.632,1.158,0.488,0.850,0.805,��,7.1,�L
2018/07/04,13:00,0.909,1.294,0.909,1.633,1.156,0.487,0.850,0.803,��,6.7,�L
2018/07/04,13:10,0.910,1.290,0.908,1.632,1.157,0.487,0.849,0.805,��,6.4,��
2018/07/04,13:20,0.910,1.295,0.908,1.633,1.157,0.485,0.849,0.804,��,6.1,��
2018/07/04,13:30,0.909,1.292,0.909,1.632,1.161,0.487,0.850,0.804,��,7.3,�L
2018/07/04,13:40,0.911,1.292,0.908,1.634,1.159,0.485,0.851,0.803,��,8.7,��
2018/07/04,13:50,0.911,1.290,0.907,1.635,1.159,0.486,0.849,0.804,��,9.3,��
2018/07/04,14:00,0.913,1.294,0.912,1.633,1.157,0.487,0.850,0.804,��,9.0,�L
2018/07/04,14:10,0.911,1.293,0.910,1.632,1.157,0.487,0.850,0.804,��,8.4,�L
2018/07/04,14:20,0.911,1.293,0.910,1.632,1.158,0.484,0.850,0.804,��,9.1,��
2018/07/04,14:30,0.912,1.291,0.911,1.634,1.157,0.484,0.851,0.804,��,9.2,��
2018/07/04,14:40,0.910,1.293,0.911,1.633,1.157,0.484,0.851,0.803,��,8.2,��
2018/07/04,14:50,0.912,1.294,0.909,1.634,1.155,0.485,0.851,0.804,��,9.6,��
2018/07/04,15:00,0.910,1.292,0.911,1.634,1.160,0.484,0.851,0.803,��,7.0,��
2018/07/04,15:10,0.910,1.293,0.911,1.632,1.157,0.486,0.852,0.804,��,8.8,��
2018/07/04,15:20,0.910,1.290,0.910,1.633,1.156,0.487,0.852,0.805,��,8.6,��
2018/07/04,15:30,0.910,1.293,0.909,1.635,1.157,0.486,0.850,0.803,��,8.2,��
2018/07/04,15:40,0.911,1.293,0.910,1.633,1.157,0.484,0.850,0.803,��,9.4,��
2018/07/04,15:50,0.912,1.293,0.913,1.635,1.157,0.486,0.850,0.804,��,9.4,��
2018/07/04,16:00,0.909,1.295,0.911,1.636,1.157,0.485,0.850,0.803,��,9.7,��
2018/07/04,16:10,0.909,1.295,0.912,1.632,1.157,0.484,0.852,0.804,��,9.4,��
2018/07/04,16:20,0.909,1.295,0.912,1.634,1.154,0.484,0.850,0.805,��,10.4,��
2018/07/04,16:30,0.908,1.293,0.908,1.633,1.160,0.485,0.852,0.806,��,10.5,��
2018/07/04,16:40,0.909,1.294,0.909,1.633,1.156,0.486,0.851,0.803,��,11.9,��
2018/07/04,16:50,0.909,1.296,0.911,1.634,1.157,0.486,0.850,0.804,��,11.3,��
2018/07/04,17:00,0.913,1.294,0.909,1.637,1.155,0.483,0.850,0.804,��,11.0,��
2018/07/04,17:10,0.908,1.291,0.907,1.635,1.156,0.483,0.852,0.804,��,9.9,��
2018/07/04,17:20,0.909,1.293,0.910,1.633,1.156,0.484,0.851,0.805,��,9.6,��
2018/07/04,17:30,0.910,1.295,0.910,1.636,1.157,0.485,0.850,0.803,��,10.8,��
2018/07/04,17:40,0.911,1.297,0.911,1.633,1.158,0.485,0.852,0.803,��,9.7,��
2018/07/04,17:50,0.911,1.295,0.912,1.635,1.156,0.484,0.851,0.805,��,10.3,��
2018/07/04,18:00,0.909,1.296,0.911,1.636,1.154,0.486,0.853,0.804,��,9.2,��
2018/07/04,18:10,0.910,1.294,0.910,1.634,1.157,0.484,0.851,0.804,��,9.9,�L
2018/07/04,18:20,0.910,1.296,0.911,1.635,1.154,0.485,0.851,0.805,��,11.0,�L
2018/07/04,18:30,0.912,1.295,0.911,1.634,1.156,0.486,0.852,0.803,��,12.7,�L
2018/07/04,18:40,0.910,1.295,0.911,1.636,1.156,0.484,0.852,0.806,��,11.7,�L
2018/07/04,18:50,0.910,1.295,0.910,1.639,1.154,0.485,0.851,0.804,��,12.2,�L
2018/07/04,19:00,0.912,1.294,0.909,1.636,1.156,0.485,0.851,0.805,��,13.3,�L
2018/07/04,19:10,0.908,1.294,0.910,1.636,1.152,0.485,0.850,0.804,��,10.9,�L
2018/07/04,19:20,0.906,1.289,0.909,1.630,1.149,0.484,0.848,0.804,��,10.5,�L
2018/07/04,19:30,0.908,1.289,0.908,1.632,1.149,0.486,0.848,0.802,��,11.9,�L
2018/07/04,19:40,0.905,1.287,0.908,1.633,1.149,0.484,0.848,0.802,��,10.8,�L
2018/07/04,19:50,0.906,1.291,0.907,1.634,1.145,0.484,0.848,0.802,��,11.3,�L
2018/07/04,20:00,0.906,1.286,0.908,1.632,1.148,0.484,0.848,0.803,��,9.7,�L
2018/07/04,20:10,0.907,1.286,0.908,1.630,1.149,0.485,0.848,0.802,��,10.5,�L
2018/07/04,20:20,0.905,1.287,0.907,1.630,1.149,0.484,0.848,0.801,��,10.3,�L
2018/07/04,20:30,0.906,1.286,0.908,1.631,1.149,0.483,0.848,0.800,��,10.6,�L
2018/07/04,20:40,0.905,1.287,0.908,1.632,1.148,0.486,0.851,0.801,��,8.9,�L
2018/07/04,20:50,0.904,1.285,0.909,1.630,1.148,0.484,0.849,0.800,��,8.9,�L
2018/07/04,21:00,0.906,1.287,0.909,1.629,1.149,0.484,0.848,0.801,��,8.9,�L
2018/07/04,21:10,0.906,1.286,0.909,1.631,1.147,0.485,0.849,0.802,��,12.2,�L
2018/07/04,21:20,0.906,1.287,0.911,1.630,1.145,0.485,0.849,0.803,��,12.2,�L
2018/07/04,21:30,0.905,1.286,0.911,1.629,1.146,0.484,0.849,0.800,��,12.0,�L
2018/07/04,21:40,0.905,1.287,0.908,1.628,1.147,0.485,0.848,0.801,��,10.2,�L
2018/07/04,21:50,0.905,1.286,0.909,1.630,1.147,0.484,0.848,0.800,��,10.2,�L
2018/07/04,22:00,0.907,1.286,0.909,1.631,1.148,0.484,0.849,0.802,��,9.5,�L
2018/07/04,22:10,0.906,1.286,0.909,1.630,1.145,0.484,0.851,0.803,��,11.1,�L
2018/07/04,22:20,0.906,1.285,0.909,1.631,1.147,0.484,0.849,0.802,��,11.6,�L
2018/07/04,22:30,0.906,1.286,0.911,1.628,1.148,0.484,0.848,0.805,��,11.3,��
2018/07/04,22:40,0.907,1.288,0.908,1.628,1.146,0.484,0.847,0.802,��,11.7,��
2018/07/04,22:50,0.905,1.288,0.909,1.629,1.147,0.485,0.849,0.801,��,12.1,�L
2018/07/04,23:00,0.907,1.288,0.910,1.630,1.148,0.483,0.850,0.802,��,13.0,�L
2018/07/04,23:10,0.905,1.288,0.908,1.627,1.148,0.486,0.850,0.801,��,11.7,�L
2018/07/04,23:20,0.905,1.287,0.908,1.629,1.147,0.485,0.849,0.802,��,11.3,�L
2018/07/04,23:30,0.906,1.288,0.912,1.629,1.147,0.487,0.847,0.802,��,10.8,�L
2018/07/04,23:40,0.907,1.286,0.909,1.631,1.147,0.485,0.847,0.802,��,10.2,��
2018/07/04,23:50,0.906,1.286,0.909,1.629,1.149,0.486,0.851,0.801,��,9.4,��
